Time,TemperatureF,DewpointF,PressureIn,WindDirection,WindDirectionDegrees,WindSpeedMPH,WindSpeedGustMPH,Humidity,HourlyPrecipIn,Conditions,Clouds,dailyrainin,SoftwareType,DateUTC
2013-02-21 00:03:00,70.0,-99.9,30.05,ENE,57,6.0,7.0,-999,-99.99,,,-99.99,,2013-02-21 05:03:00,
2013-02-21 00:12:00,70.0,-99.9,30.05,ENE,57,6.0,7.0,-999,-99.99,,,-99.99,,2013-02-21 05:12:00,
2013-02-21 00:22:00,70.0,-99.9,30.05,ENE,57,6.0,7.0,-999,-99.99,,,-99.99,,2013-02-21 05:22:00,
2013-02-21 01:42:00,70.0,-99.9,30.03,ENE,63,7.0,9.0,-999,-99.99,,,-99.99,,2013-02-21 06:42:00,
2013-02-21 01:52:00,70.0,-99.9,30.02,ENE,57,7.0,9.0,-999,-99.99,,,-99.99,,2013-02-21 06:52:00,
2013-02-21 02:01:00,70.0,-99.9,30.01,ENE,65,8.0,10.0,-999,-99.99,,,-99.99,,2013-02-21 07:01:00,
2013-02-21 02:11:00,70.0,-99.9,30.01,ENE,69,7.0,9.0,-999,-99.99,,,-99.99,,2013-02-21 07:11:00,
2013-02-21 02:22:00,70.0,-99.9,30.01,ENE,62,7.0,10.0,-999,-99.99,,,-99.99,,2013-02-21 07:22:00,
2013-02-21 02:32:00,70.0,-99.9,30.01,ENE,60,7.0,9.0,-999,-99.99,,,-99.99,,2013-02-21 07:32:00,
2013-02-21 02:42:00,70.0,-99.9,30.01,ENE,68,8.0,10.0,-999,-99.99,,,-99.99,,2013-02-21 07:42:00,
2013-02-21 02:52:00,70.0,-99.9,30.00,ENE,70,7.0,9.0,-999,-99.99,,,-99.99,,2013-02-21 07:52:00,
2013-02-21 03:02:00,70.0,-99.9,30.00,ENE,65,5.0,7.0,-999,-99.99,,,-99.99,,2013-02-21 08:02:00,
2013-02-21 03:11:00,70.0,-99.9,30.00,ENE,71,6.0,8.0,-999,-99.99,,,-99.99,,2013-02-21 08:11:00,
2013-02-21 03:21:00,70.0,-99.9,29.99,ENE,71,7.0,8.0,-999,-99.99,,,-99.99,,2013-02-21 08:21:00,
2013-02-21 03:32:00,70.0,-99.9,29.99,ENE,72,5.0,6.0,-999,-99.99,,,-99.99,,2013-02-21 08:32:00,
2013-02-21 03:42:00,70.0,-99.9,29.98,ENE,73,4.0,6.0,-999,-99.99,,,-99.99,,2013-02-21 08:42:00,
2013-02-21 03:52:00,71.0,-99.9,29.98,East,83,6.0,7.0,-999,-99.99,,,-99.99,,2013-02-21 08:52:00,
2013-02-21 04:02:00,71.0,-99.9,29.98,East,88,6.0,10.0,-999,-99.99,,,-99.99,,2013-02-21 09:02:00,
2013-02-21 04:11:00,71.0,-99.9,29.98,East,97,6.0,9.0,-999,-99.99,,,-99.99,,2013-02-21 09:11:00,
2013-02-21 04:22:00,72.0,-99.9,29.98,East,88,7.0,10.0,-999,-99.99,,,-99.99,,2013-02-21 09:22:00,
2013-02-21 04:32:00,72.0,-99.9,29.98,East,89,6.0,11.0,-999,-99.99,,,-99.99,,2013-02-21 09:32:00,
2013-02-21 04:42:00,72.0,-99.9,29.98,East,96,6.0,11.0,-999,-99.99,,,-99.99,,2013-02-21 09:42:00,
2013-02-21 04:52:00,72.0,-99.9,29.98,East,96,6.0,9.0,-999,-99.99,,,-99.99,,2013-02-21 09:52:00,
2013-02-21 05:01:00,72.0,-99.9,29.98,East,96,6.0,9.0,-999,-99.99,,,-99.99,,2013-02-21 10:01:00,
2013-02-21 05:11:00,72.0,-99.9,29.98,East,96,6.0,9.0,-999,-99.99,,,-99.99,,2013-02-21 10:11:00,
2013-02-21 05:21:00,72.0,-99.9,29.98,East,96,6.0,9.0,-999,-99.99,,,-99.99,,2013-02-21 10:21:00,
2013-02-21 06:21:00,72.0,-99.9,29.99,East,98,4.0,9.0,-999,-99.99,,,-99.99,,2013-02-21 11:21:00,
2013-02-21 06:31:00,72.0,-99.9,29.99,East,99,4.0,6.0,-999,-99.99,,,-99.99,,2013-02-21 11:31:00,
2013-02-21 06:42:00,72.0,-99.9,30.01,East,100,4.0,6.0,-999,-99.99,,,-99.99,,2013-02-21 11:42:00,
2013-02-21 06:52:00,72.0,-99.9,30.01,ESE,104,4.0,6.0,-999,-99.99,,,-99.99,,2013-02-21 11:52:00,
2013-02-21 07:01:00,72.0,-99.9,30.01,ESE,110,4.0,6.0,-999,-99.99,,,-99.99,,2013-02-21 12:01:00,
2013-02-21 07:11:00,72.0,-99.9,30.02,ESE,108,4.0,6.0,-999,-99.99,,,-99.99,,2013-02-21 12:11:00,
2013-02-21 07:22:00,73.0,-99.9,30.03,ESE,111,4.0,6.0,-999,-99.99,,,-99.99,,2013-02-21 12:22:00,
2013-02-21 07:32:00,73.0,-99.9,30.03,ESE,114,4.0,7.0,-999,-99.99,,,-99.99,,2013-02-21 12:32:00,
2013-02-21 07:43:00,73.0,-99.9,30.03,ESE,110,4.0,7.0,-999,-99.99,,,-99.99,,2013-02-21 12:43:00,
2013-02-21 07:53:00,74.0,-99.9,30.03,ESE,111,5.0,9.0,-999,-99.99,,,-99.99,,2013-02-21 12:53:00,
2013-02-21 08:02:00,75.0,-99.9,30.04,ESE,122,6.0,9.0,-999,-99.99,,,-99.99,,2013-02-21 13:02:00,
2013-02-21 08:12:00,75.0,-99.9,30.04,SE,125,7.0,12.0,-999,-99.99,,,-99.99,,2013-02-21 13:12:00,
2013-02-21 08:22:00,76.0,-99.9,30.04,ESE,121,6.0,11.0,-999,-99.99,,,-99.99,,2013-02-21 13:22:00,
2013-02-21 08:32:00,76.0,-99.9,30.04,ESE,120,5.0,12.0,-999,-99.99,,,-99.99,,2013-02-21 13:32:00,
2013-02-21 08:42:00,76.0,-99.9,30.04,ESE,122,6.0,13.0,-999,-99.99,,,-99.99,,2013-02-21 13:42:00,
2013-02-21 08:52:00,77.0,-99.9,30.04,ESE,120,6.0,13.0,-999,-99.99,,,-99.99,,2013-02-21 13:52:00,
2013-02-21 09:02:00,77.0,-99.9,30.05,SE,125,6.0,11.0,-999,-99.99,,,-99.99,,2013-02-21 14:02:00,
2013-02-21 09:11:00,77.0,-99.9,30.05,ESE,122,8.0,13.0,-999,-99.99,,,-99.99,,2013-02-21 14:11:00,
2013-02-21 09:22:00,77.0,-99.9,30.06,ESE,121,8.0,13.0,-999,-99.99,,,-99.99,,2013-02-21 14:22:00,
2013-02-21 09:32:00,77.0,-99.9,30.06,ESE,120,8.0,11.0,-999,-99.99,,,-99.99,,2013-02-21 14:32:00,
2013-02-21 09:42:00,78.0,-99.9,30.06,SE,129,6.0,12.0,-999,-99.99,,,-99.99,,2013-02-21 14:42:00,
2013-02-21 09:52:00,78.0,-99.9,30.06,ESE,123,6.0,12.0,-999,-99.99,,,-99.99,,2013-02-21 14:52:00,
2013-02-21 10:02:00,77.0,-99.9,30.06,SE,129,7.0,12.0,-999,-99.99,,,-99.99,,2013-02-21 15:02:00,
2013-02-21 10:12:00,78.0,-99.9,30.06,ESE,119,6.0,13.0,-999,-99.99,,,-99.99,,2013-02-21 15:12:00,
2013-02-21 10:22:00,78.0,-99.9,30.06,ESE,122,9.0,15.0,-999,-99.99,,,-99.99,,2013-02-21 15:22:00,
2013-02-21 10:32:00,78.0,-99.9,30.06,ESE,122,8.0,13.0,-999,-99.99,,,-99.99,,2013-02-21 15:32:00,
2013-02-21 10:42:00,78.0,-99.9,30.07,ESE,112,10.0,14.0,-999,-99.99,,,-99.99,,2013-02-21 15:42:00,
2013-02-21 10:52:00,78.0,-99.9,30.07,ESE,119,7.0,15.0,-999,-99.99,,,-99.99,,2013-02-21 15:52:00,
2013-02-21 11:02:00,78.0,-99.9,30.07,SE,128,9.0,14.0,-999,-99.99,,,-99.99,,2013-02-21 16:02:00,
2013-02-21 11:12:00,78.0,-99.9,30.07,ESE,111,9.0,14.0,-999,-99.99,,,-99.99,,2013-02-21 16:12:00,
2013-02-21 11:22:00,78.0,-99.9,30.07,SE,125,9.0,13.0,-999,-99.99,,,-99.99,,2013-02-21 16:22:00,
2013-02-21 11:32:00,78.0,-99.9,30.07,ESE,115,9.0,15.0,-999,-99.99,,,-99.99,,2013-02-21 16:32:00,
2013-02-21 11:42:00,78.0,-99.9,30.07,ESE,115,9.0,14.0,-999,-99.99,,,-99.99,,2013-02-21 16:42:00,
2013-02-21 11:52:00,78.0,-99.9,30.06,ESE,114,9.0,13.0,-999,-99.99,,,-99.99,,2013-02-21 16:52:00,
2013-02-21 12:02:00,78.0,-99.9,30.06,ESE,114,9.0,15.0,-999,-99.99,,,-99.99,,2013-02-21 17:02:00,
2013-02-21 12:12:00,78.0,-99.9,30.06,ESE,110,10.0,16.0,-999,-99.99,,,-99.99,,2013-02-21 17:12:00,
2013-02-21 12:22:00,78.0,-99.9,30.05,ESE,122,11.0,17.0,-999,-99.99,,,-99.99,,2013-02-21 17:22:00,
2013-02-21 12:32:00,78.0,-99.9,30.05,SE,125,11.0,17.0,-999,-99.99,,,-99.99,,2013-02-21 17:32:00,
2013-02-21 12:42:00,78.0,-99.9,30.05,ESE,118,9.0,14.0,-999,-99.99,,,-99.99,,2013-02-21 17:42:00,
2013-02-21 12:52:00,78.0,-99.9,30.05,SE,139,11.0,15.0,-999,-99.99,,,-99.99,,2013-02-21 17:52:00,
2013-02-21 13:02:00,78.0,-99.9,30.05,ESE,120,11.0,16.0,-999,-99.99,,,-99.99,,2013-02-21 18:02:00,
2013-02-21 13:12:00,78.0,-99.9,30.04,ESE,117,10.0,14.0,-999,-99.99,,,-99.99,,2013-02-21 18:12:00,
2013-02-21 13:22:00,78.0,-99.9,30.04,ESE,123,9.0,16.0,-999,-99.99,,,-99.99,,2013-02-21 18:22:00,
2013-02-21 13:32:00,78.0,-99.9,30.04,ESE,110,10.0,14.0,-999,-99.99,,,-99.99,,2013-02-21 18:32:00,
2013-02-21 13:42:00,78.0,-99.9,30.04,SE,128,9.0,15.0,-999,-99.99,,,-99.99,,2013-02-21 18:42:00,
2013-02-21 13:52:00,79.0,-99.9,30.03,ESE,121,7.0,13.0,-999,-99.99,,,-99.99,,2013-02-21 18:52:00,
2013-02-21 14:02:00,78.0,-99.9,30.03,ESE,122,7.0,13.0,-999,-99.99,,,-99.99,,2013-02-21 19:02:00,
2013-02-21 14:12:00,78.0,-99.9,30.03,ESE,119,9.0,15.0,-999,-99.99,,,-99.99,,2013-02-21 19:12:00,
2013-02-21 14:22:00,78.0,-99.9,30.02,SE,128,7.0,13.0,-999,-99.99,,,-99.99,,2013-02-21 19:22:00,
2013-02-21 14:32:00,78.0,-99.9,30.02,ESE,112,9.0,13.0,-999,-99.99,,,-99.99,,2013-02-21 19:32:00,
2013-02-21 14:42:00,78.0,-99.9,30.02,ESE,115,8.0,15.0,-999,-99.99,,,-99.99,,2013-02-21 19:42:00,
2013-02-21 14:52:00,78.0,-99.9,30.02,ESE,115,8.0,15.0,-999,-99.99,,,-99.99,,2013-02-21 19:52:00,
2013-02-21 15:01:00,78.0,-99.9,30.02,ESE,118,8.0,14.0,-999,-99.99,,,-99.99,,2013-02-21 20:01:00,
2013-02-21 15:11:00,78.0,-99.9,30.01,SE,137,9.0,13.0,-999,-99.99,,,-99.99,,2013-02-21 20:11:00,
2013-02-21 15:22:00,78.0,-99.9,30.01,ESE,105,9.0,13.0,-999,-99.99,,,-99.99,,2013-02-21 20:22:00,
2013-02-21 15:32:00,78.0,-99.9,30.01,SE,128,8.0,14.0,-999,-99.99,,,-99.99,,2013-02-21 20:32:00,
2013-02-21 15:42:00,78.0,-99.9,30.00,ESE,116,8.0,11.0,-999,-99.99,,,-99.99,,2013-02-21 20:42:00,
2013-02-21 15:53:00,78.0,-99.9,30.00,ESE,107,6.0,11.0,-999,-99.99,,,-99.99,,2013-02-21 20:53:00,
2013-02-21 16:02:00,78.0,-99.9,30.00,ESE,114,8.0,11.0,-999,-99.99,,,-99.99,,2013-02-21 21:02:00,
2013-02-21 16:12:00,78.0,-99.9,30.00,ESE,112,7.0,11.0,-999,-99.99,,,-99.99,,2013-02-21 21:12:00,
2013-02-21 16:22:00,78.0,-99.9,30.00,ESE,122,7.0,13.0,-999,-99.99,,,-99.99,,2013-02-21 21:22:00,
2013-02-21 16:32:00,78.0,-99.9,30.00,East,100,7.0,13.0,-999,-99.99,,,-99.99,,2013-02-21 21:32:00,
2013-02-21 16:42:00,77.0,-99.9,30.00,ESE,112,7.0,13.0,-999,-99.99,,,-99.99,,2013-02-21 21:42:00,
2013-02-21 16:52:00,77.0,-99.9,30.00,East,99,10.0,13.0,-999,-99.99,,,-99.99,,2013-02-21 21:52:00,
2013-02-21 17:02:00,77.0,-99.9,30.00,East,96,7.0,12.0,-999,-99.99,,,-99.99,,2013-02-21 22:02:00,
2013-02-21 17:11:00,77.0,-99.9,30.00,ESE,105,8.0,13.0,-999,-99.99,,,-99.99,,2013-02-21 22:11:00,
2013-02-21 17:22:00,77.0,-99.9,30.00,East,101,6.0,11.0,-999,-99.99,,,-99.99,,2013-02-21 22:22:00,
2013-02-21 17:32:00,77.0,-99.9,30.00,ESE,106,7.0,13.0,-999,-99.99,,,-99.99,,2013-02-21 22:32:00,
2013-02-21 17:42:00,77.0,-99.9,30.00,ESE,104,6.0,10.0,-999,-99.99,,,-99.99,,2013-02-21 22:42:00,
2013-02-21 17:52:00,76.0,-99.9,30.00,ESE,114,5.0,11.0,-999,-99.99,,,-99.99,,2013-02-21 22:52:00,
2013-02-21 18:01:00,76.0,-99.9,30.00,ESE,116,5.0,9.0,-999,-99.99,,,-99.99,,2013-02-21 23:01:00,
2013-02-21 18:11:00,76.0,-99.9,30.00,East,99,7.0,11.0,-999,-99.99,,,-99.99,,2013-02-21 23:11:00,
2013-02-21 18:22:00,75.0,-99.9,30.00,East,90,7.0,10.0,-999,-99.99,,,-99.99,,2013-02-21 23:22:00,
2013-02-21 18:32:00,75.0,-99.9,30.00,East,94,7.0,11.0,-999,-99.99,,,-99.99,,2013-02-21 23:32:00,
2013-02-21 18:42:00,75.0,-99.9,30.00,East,98,5.0,10.0,-999,-99.99,,,-99.99,,2013-02-21 23:42:00,
2013-02-21 18:53:00,75.0,-99.9,30.01,East,88,6.0,10.0,-999,-99.99,,,-99.99,,2013-02-21 23:53:00,
2013-02-21 19:02:00,75.0,-99.9,30.01,East,96,6.0,11.0,-999,-99.99,,,-99.99,,2013-02-22 00:02:00,
2013-02-21 19:11:00,75.0,-99.9,30.01,East,85,7.0,12.0,-999,-99.99,,,-99.99,,2013-02-22 00:11:00,
2013-02-21 19:22:00,75.0,-99.9,30.01,East,79,6.0,11.0,-999,-99.99,,,-99.99,,2013-02-22 00:22:00,
2013-02-21 19:32:00,74.0,-99.9,30.01,East,89,6.0,9.0,-999,-99.99,,,-99.99,,2013-02-22 00:32:00,
2013-02-21 19:42:00,74.0,-99.9,30.01,East,88,8.0,11.0,-999,-99.99,,,-99.99,,2013-02-22 00:42:00,
2013-02-21 19:52:00,74.0,-99.9,30.01,East,88,8.0,11.0,-999,-99.99,,,-99.99,,2013-02-22 00:52:00,
2013-02-21 20:01:00,74.0,-99.9,30.02,East,82,6.0,10.0,-999,-99.99,,,-99.99,,2013-02-22 01:01:00,
2013-02-21 20:11:00,74.0,-99.9,30.02,East,84,6.0,11.0,-999,-99.99,,,-99.99,,2013-02-22 01:11:00,
2013-02-21 20:22:00,74.0,-99.9,30.03,East,86,6.0,9.0,-999,-99.99,,,-99.99,,2013-02-22 01:22:00,
2013-02-21 20:32:00,74.0,-99.9,30.03,East,91,6.0,9.0,-999,-99.99,,,-99.99,,2013-02-22 01:32:00,
2013-02-21 20:42:00,74.0,-99.9,30.03,East,91,6.0,9.0,-999,-99.99,,,-99.99,,2013-02-22 01:42:00,
2013-02-21 20:52:00,74.0,-99.9,30.02,East,90,7.0,11.0,-999,-99.99,,,-99.99,,2013-02-22 01:52:00,
2013-02-21 21:02:00,74.0,-99.9,30.02,East,87,8.0,11.0,-999,-99.99,,,-99.99,,2013-02-22 02:02:00,
2013-02-21 21:11:00,74.0,-99.9,30.02,East,95,8.0,13.0,-999,-99.99,,,-99.99,,2013-02-22 02:11:00,
2013-02-21 21:22:00,74.0,-99.9,30.01,ESE,102,7.0,11.0,-999,-99.99,,,-99.99,,2013-02-22 02:22:00,
2013-02-21 21:32:00,74.0,-99.9,30.01,East,97,6.0,11.0,-999,-99.99,,,-99.99,,2013-02-22 02:32:00,
2013-02-21 21:42:00,74.0,-99.9,30.01,East,98,8.0,12.0,-999,-99.99,,,-99.99,,2013-02-22 02:42:00,
2013-02-21 21:52:00,74.0,-99.9,30.02,East,98,10.0,15.0,-999,-99.99,,,-99.99,,2013-02-22 02:52:00,
2013-02-21 22:02:00,74.0,-99.9,30.02,East,89,8.0,12.0,-999,-99.99,,,-99.99,,2013-02-22 03:02:00,
2013-02-21 22:11:00,74.0,-99.9,30.02,East,100,7.0,13.0,-999,-99.99,,,-99.99,,2013-02-22 03:11:00,
2013-02-21 22:22:00,74.0,-99.9,30.02,ESE,104,6.0,11.0,-999,-99.99,,,-99.99,,2013-02-22 03:22:00,
2013-02-21 22:32:00,75.0,-99.9,30.02,ESE,105,9.0,16.0,-999,-99.99,,,-99.99,,2013-02-22 03:32:00,
2013-02-21 22:42:00,75.0,-99.9,30.02,ESE,109,6.0,10.0,-999,-99.99,,,-99.99,,2013-02-22 03:42:00,
2013-02-21 22:52:00,75.0,-99.9,30.02,ESE,102,6.0,11.0,-999,-99.99,,,-99.99,,2013-02-22 03:52:00,
2013-02-21 23:02:00,75.0,-99.9,30.02,ESE,106,8.0,13.0,-999,-99.99,,,-99.99,,2013-02-22 04:02:00,
2013-02-21 23:11:00,75.0,-99.9,30.02,ESE,113,7.0,10.0,-999,-99.99,,,-99.99,,2013-02-22 04:11:00,
2013-02-21 23:22:00,74.0,-99.9,30.02,ESE,116,6.0,9.0,-999,-99.99,,,-99.99,,2013-02-22 04:22:00,
2013-02-21 23:32:00,75.0,-99.9,30.02,ESE,108,7.0,12.0,-999,-99.99,,,-99.99,,2013-02-22 04:32:00,
2013-02-21 23:42:00,75.0,-99.9,30.03,ESE,109,6.0,11.0,-999,-99.99,,,-99.99,,2013-02-22 04:42:00,
2013-02-21 23:52:00,74.0,-99.9,30.03,ESE,105,5.0,9.0,-999,-99.99,,,-99.99,,2013-02-22 04:52:00,